CAPE
484 1086 1038 1109 985 659 819 1046 1246 1263 1246 1300 1206 992 850 852 873 864 1093 1325 1259 1667 1620 1609 1308 1342 1337 1378 1150 987 758 1039 1055 1043 1041 1449 1393 1109 1107 1100 1068 1146 1128
663 1208 1013 1200 1053 763 856 973 1200 1364 1412 1515 1420 1235 1106 992 907 871 1133 1265 1571 1619 1620 1436 1329 1343 1348 1086 911 858 986 1135 961 868 1200 1426 1271 1254 1234 1080 1097 1114 1129
809 1238 1148 1301 1129 952 809 925 1086 1343 1539 1568 1565 1417 1293 1147 937 951 1190 1393 1661 1699 1713 1494 1389 1412 1178 942 956 1006 1018 1098 1023 1097 1378 956 1054 1303 1263 1005 1110 1018 1126
1003 1366 1457 1383 1207 1040 915 904 1021 1251 1406 1594 1674 1582 1405 1223 983 1074 1255 1488 1742 1764 1588 1535 1558 1540 1023 888 966 958 1059 1171 1233 1256 1248 1251 1152 1321 1123 983 995 953 1009
1197 1424 1562 1441 1259 1105 1010 973 988 1084 1231 1446 1632 1691 1517 1271 1200 1324 1433 1601 1668 1741 1585 1670 1685 1489 1009 847 898 956 1052 1220 1187 1192 1195 1229 1132 1286 1230 965 1014 1003 1042
1279 1461 1485 1436 1314 1167 1056 1055 1065 1001 1031 1303 1604 1790 1667 1523 1701 1514 1579 1734 1877 1800 1672 1805 1604 1166 929 867 862 968 1099 1146 1139 1284 1195 1024 1283 1195 1154 999 1164 1080 1005
1426 1562 1591 1453 1428 1286 1205 1204 1174 1012 942 1068 1434 1732 1844 1926 1836 1680 1793 1846 1956 1827 1857 1885 1469 1000 913 917 911 970 1011 996 1262 1270 1194 1142 1037 1154 1201 1215 1081 964 980
1515 1596 1732 1624 1573 1514 1419 1270 1127 1018 989 1038 1160 1335 1631 1781 1739 1646 1738 1775 1722 1772 1925 1780 1233 896 937 981 995 971 947 1038 1259 1386 1274 1238 1053 1165 1284 1183 864 906 917
1635 1652 1753 1938 1836 1654 1559 1430 1274 1109 1042 1070 1136 1195 1314 1450 1555 1611 1684 1746 1750 1660 1563 1596 988 861 968 960 907 872 906 1005 1381 1440 1309 1206 1038 1088 1173 1032 833 865 842
1371 1651 1625 1715 1836 1976 1901 1568 1488 1314 1175 1159 1138 1228 1359 1392 1513 1656 1656 1860 1767 1534 1515 1397 947 840 877 892 875 826 843 861 1305 1318 1263 1221 971 1049 1129 986 885 826 775
1068 1158 1348 1531 1662 1830 1877 1830 1619 1558 1454 1336 1320 1261 1367 1715 1740 1789 1822 1851 1630 1391 1408 1195 966 831 875 952 850 772 762 1149 1221 1240 1169 795 665 837 954 899 811 703 702
892 1064 1314 1427 1513 1614 1638 1886 1966 1863 1908 1924 1874 1745 1735 1785 1831 1782 1758 1528 1501 1207 1176 1030 986 854 950 1347 1095 775 1165 1223 1162 1132 1170 642 649 635 710 847 712 651 590
610 837 1000 1061 1124 1245 1511 1702 1804 1702 1727 1788 1995 2045 1915 1788 1753 1722 1740 1716 1796 1236 1413 1022 918 1161 1289 1363 1211 1092 1117 1031 1144 1112 914 558 552 401 484 739 691 561 386
1244 522 692 769 803 881 1360 1318 1365 1474 1524 1659 1897 2008 1924 1703 1615 1732 1673 1787 1818 1528 1382 1322 1161 1254 1282 1275 1301 1016 691 816 965 1047 593 306 370 320 370 388 422 445 312
44 1431 789 519 429 633 1094 1121 1217 1179 1277 1664 1821 1885 1964 1639 1604 1621 1655 1583 1487 1382 1255 1064 1014 938 1029 1079 1076 1023 740 733 564 452 335 157 156 259 261 468 66 491 334
0 0 1108 722 420 679 655 982 1022 1135 1355 1401 1701 1779 1802 1733 1504 1456 1461 1399 1351 1267 1117 1013 925 852 870 817 801 718 793 617 331 133 75 31 84 103 256 516 343 465 327
0 0 0 0 155 1094 903 886 1047 1126 1275 1258 1272 1224 1098 1157 1264 1344 1370 1270 1085 1037 971 798 662 580 636 518 398 505 701 590 243 71 15 21 34 49 60 279 369 386 324
0 0 0 0 342 1330 1446 1262 1083 1109 1185 1014 877 942 1019 1170 1278 1231 1277 1213 888 746 798 682 441 412 408 405 381 403 573 347 79 22 12 17 29 23 41 197 154 188 214
0 0 0 0 20 330 1096 1505 1328 1101 983 936 843 834 1026 1133 1203 1182 1268 1127 745 633 631 597 446 417 328 229 353 398 527 197 18 1 15 7 30 42 41 35 37 140 154
0 0 0 0 0 16 723 1274 1322 1122 959 802 687 761 876 1041 1123 1214 1251 1008 712 540 524 448 401 304 240 243 173 169 210 126 49 21 3 4 15 34 23 18 76 145 68
0 0 0 0 0 0 467 821 964 948 1136 866 847 1024 1049 1009 1057 1170 1153 940 715 642 430 403 322 228 170 143 137 118 35 57 39 34 30 20 37 22 19 24 58 110 74
0 0 0 0 0 0 5 857 1056 1024 1164 1193 1035 944 956 861 887 1024 1039 796 601 514 370 355 285 246 166 97 69 23 12 5 6 15 35 48 53 30 7 15 27 36 42
0 0 0 0 0 0 0 794 1404 1228 1217 1163 1113 1098 1009 1025 878 930 901 649 493 435 421 448 319 304 172 73 46 29 2 0 0 3 2 15 29 25 11 1 14 19 2
0 0 0 0 1 0 0 322 1207 1051 1036 1245 1472 1348 1240 1070 892 874 787 613 520 571 566 427 364 284 161 109 44 25 0 1 11 0 2 2 21 10 4 3 0 8 0
0 0 0 1 1 0 1 0 1206 1336 1238 1442 1720 1630 1390 1106 966 817 741 705 731 656 519 381 234 195 148 97 64 18 2 0 0 0 0 0 0 2 3 1 1 1 4
0 0 0 1 2 2 1 3 531 1274 1379 1469 1527 1519 1309 1053 1031 891 743 732 641 661 511 371 166 170 119 84 64 47 8 0 0 0 0 1 2 0 1 1 1 0 2
CIN
-500 -428 -478 -428 -412 -443 -360 -268 -235 -214 -198 -184 -188 -185 -177 -164 -159 -149 -110 -69 -53 -4 -2 -0 -12 -12 -15 -11 -25 -37 -49 -34 -32 -28 -24 -0 -0 -7 -3 -5 -7 -0 -3
-494 -432 -467 -421 -414 -435 -350 -268 -212 -180 -154 -129 -148 -165 -153 -146 -148 -142 -100 -71 -29 -12 -4 -13 -21 -23 -21 -35 -47 -47 -37 -28 -35 -32 -18 -4 -15 -6 -1 -3 -1 -1 -3
-430 -429 -424 -406 -405 -408 -373 -290 -226 -164 -131 -111 -109 -125 -128 -137 -144 -125 -93 -61 -27 -11 -7 -22 -23 -19 -32 -46 -44 -42 -47 -43 -33 -20 -9 -25 -15 -0 -4 -11 -8 -6 -4
-404 -402 -376 -386 -393 -394 -372 -307 -248 -185 -145 -99 -92 -105 -115 -122 -134 -117 -85 -53 -24 -12 -20 -20 -17 -16 -40 -46 -46 -50 -49 -40 -27 -21 -6 -0 -0 -0 -5 -7 -17 -7 -8
-416 -388 -356 -376 -380 -373 -360 -318 -270 -222 -174 -122 -91 -85 -100 -113 -109 -91 -66 -48 -30 -16 -24 -17 -18 -23 -47 -62 -56 -52 -49 -36 -31 -9 -3 -3 -10 -0 -0 -7 -10 -8 -4
-406 -392 -403 -361 -359 -363 -357 -331 -284 -258 -220 -156 -88 -75 -78 -84 -64 -70 -48 -32 -11 -16 -22 -15 -24 -49 -59 -63 -66 -57 -49 -42 -27 -1 -5 -9 -0 -1 -0 -3 -1 -2 -5
-385 -374 -357 -355 -343 -339 -333 -316 -278 -272 -247 -191 -108 -73 -58 -47 -49 -52 -30 -18 -9 -20 -11 -8 -39 -74 -72 -65 -73 -66 -58 -54 -6 -1 -2 -2 -5 -1 -0 -0 -1 -4 -2
-342 -355 -329 -333 -319 -304 -279 -268 -271 -280 -269 -223 -159 -98 -62 -51 -50 -52 -38 -24 -23 -19 -7 -19 -61 -92 -74 -64 -61 -52 -49 -40 -9 -0 -1 -0 -5 -1 -0 -0 -10 -12 -6
-298 -317 -310 -268 -262 -267 -251 -243 -225 -246 -245 -237 -193 -134 -91 -64 -53 -46 -35 -24 -15 -18 -27 -27 -72 -87 -78 -68 -69 -69 -63 -43 -0 -0 -0 -0 -4 -2 -0 -0 -9 -8 -3
-292 -277 -302 -285 -239 -185 -160 -188 -190 -220 -215 -196 -200 -155 -98 -60 -49 -38 -32 -15 -10 -27 -24 -30 -68 -84 -81 -68 -65 -66 -56 -42 -0 -0 -0 -0 -10 -4 -0 -0 -1 -2 -1
-292 -297 -298 -280 -249 -202 -170 -150 -165 -163 -172 -175 -156 -158 -120 -33 -24 -19 -13 -8 -17 -27 -32 -42 -54 -73 -68 -48 -54 -57 -42 -0 -0 -0 -4 -27 -15 -9 -2 -0 -0 -2 -1
-253 -292 -265 -245 -231 -215 -205 -147 -118 -110 -104 -81 -78 -87 -77 -54 -26 -19 -14 -21 -19 -35 -32 -36 -42 -47 -41 -4 -13 -49 -3 -0 -0 -8 -6 -32 -15 -7 -7 -0 -0 -1 -0
-213 -277 -303 -281 -267 -235 -189 -167 -150 -170 -155 -122 -65 -43 -59 -71 -51 -24 -5 -2 -0 -19 -7 -19 -17 -7 -2 -6 -11 -5 -2 -6 -1 -1 -20 -32 -28 -13 -7 -0 -0 -2 -7
-116 -197 -273 -314 -310 -297 -202 -227 -229 -208 -195 -167 -118 -72 -54 -95 -99 -56 -29 -4 -0 -1 -7 -7 -8 -5 -2 -6 -3 -15 -46 -33 -14 -6 -52 -47 -20 -15 -7 -3 -5 -3 -22
-118 -107 -181 -252 -319 -292 -246 -243 -238 -258 -262 -177 -132 -127 -90 -91 -111 -98 -73 -33 -12 -13 -10 -20 -16 -16 -7 -4 -4 -6 -32 -24 -34 -49 -54 -76 -41 -7 -13 -0 -12 -0 -0
-0 -0 -106 -191 -251 -239 -268 -257 -259 -246 -225 -223 -167 -139 -130 -113 -117 -132 -114 -97 -38 -19 -15 -19 -21 -15 -8 -10 -11 -19 -4 -16 -54 -75 -82 -83 -54 -21 -3 -0 -0 -0 -2
-0 -0 -0 -12 -136 -223 -220 -252 -250 -239 -207 -203 -221 -216 -226 -208 -183 -139 -143 -138 -107 -63 -33 -23 -21 -12 -8 -16 -36 -25 -3 -14 -26 -68 -76 -83 -63 -57 -27 -0 -0 -0 -4
-0 -0 -0 -0 -230 -167 -166 -223 -271 -247 -217 -220 -273 -254 -241 -197 -187 -172 -145 -147 -171 -128 -66 -37 -46 -16 -8 -6 -22 -29 -7 -22 -57 -58 -62 -44 -41 -28 -28 -2 -0 -5 -1
-0 -0 -0 -0 -80 -241 -209 -143 -195 -224 -251 -276 -265 -276 -246 -204 -184 -190 -151 -156 -187 -165 -113 -68 -50 -23 -10 -16 -8 -13 -1 -31 -64 -26 -47 -49 -13 -19 -8 -1 -44 -9 -4
-0 -0 -0 -0 -0 -237 -195 -139 -127 -176 -215 -265 -306 -298 -274 -209 -194 -158 -149 -170 -176 -185 -131 -116 -73 -51 -29 -14 -24 -21 -13 -15 -41 -46 -35 -65 -48 -34 -17 -4 -17 -6 -14
-0 -0 -0 -0 -0 -0 -191 -167 -147 -175 -193 -226 -240 -249 -233 -222 -171 -150 -161 -177 -186 -177 -167 -138 -101 -83 -60 -29 -8 -4 -25 -1 -11 -22 -1 -13 -5 -23 -51 -28 -2 -0 -7
-0 -0 -0 -0 -0 -0 -11 -157 -153 -174 -157 -175 -213 -193 -221 -230 -213 -160 -177 -208 -222 -184 -177 -150 -120 -94 -86 -74 -34 -58 -64 -20 -24 -6 -0 -5 -7 -15 -48 -40 -5 -2 -1
-0 -0 -0 -0 -0 -0 -11 -140 -57 -69 -70 -84 -119 -159 -221 -228 -253 -213 -185 -232 -238 -204 -177 -124 -110 -83 -82 -79 -40 -44 -29 -3 -0 -1 -5 -13 -17 -47 -24 -16 -7 -1 -1
-0 -0 -0 -0 -0 -0 -0 -228 -70 -119 -126 -124 -122 -192 -230 -222 -211 -216 -218 -228 -223 -173 -130 -129 -101 -94 -92 -62 -41 -44 -0 -3 -5 -0 -0 -0 -28 -38 -2 -45 -0 -32 -13
-0 -0 -0 -0 -0 -0 -0 -0 -59 -61 -110 -105 -83 -119 -170 -218 -224 -205 -199 -181 -159 -167 -136 -128 -127 -113 -94 -55 -43 -50 -24 -0 -0 -31 -0 -0 -0 -29 -1 -0 -0 -0 -0
-0 -0 -0 -0 -0 -0 -0 -0 -158 -76 -97 -75 -91 -120 -174 -201 -184 -186 -182 -146 -151 -147 -138 -130 -148 -123 -109 -74 -51 -29 -41 -0 -0 -0 -0 -2 -0 -0 -0 -0 -0 -0 -0
Wind_Speed
5 11 12 10 8 7 7 8 10 11 12 12 14 14 14 15 15 14 15 16 16 15 15 14 13 14 14 12 11 11 11 10 11 11 11 10 10 10 9 11 12 13 15
7 11 13 10 8 7 6 7 8 9 9 10 11 12 12 13 13 13 13 14 15 14 14 13 13 12 12 11 11 10 10 9 10 11 12 10 9 6 6 7 9 10 14
8 11 12 11 10 9 7 7 7 8 8 9 9 10 11 11 12 12 12 13 13 13 12 12 12 11 11 11 10 10 10 10 10 11 11 9 8 7 7 8 7 13 13
8 9 9 10 9 9 8 6 6 6 7 7 7 8 9 9 10 10 10 11 12 11 11 12 11 11 10 10 10 10 10 11 12 11 10 8 7 7 6 6 11 14 13
6 8 8 9 9 8 7 6 5 5 6 6 6 6 7 8 9 9 9 9 10 10 10 10 10 10 10 10 10 10 10 10 10 10 8 7 5 5 6 8 15 13 11
6 7 9 9 8 7 7 6 4 4 4 5 5 6 6 7 7 7 7 7 8 8 9 8 9 9 9 9 9 9 9 9 9 9 9 5 4 5 5 6 8 8 9
5 5 7 8 8 6 4 4 3 3 3 4 4 5 5 5 5 5 6 5 5 6 6 6 7 8 8 9 9 9 8 8 7 7 8 9 2 2 4 5 7 7 6
4 4 5 6 5 3 2 1 3 3 3 3 3 3 4 4 3 4 4 3 3 4 4 5 6 7 7 7 7 7 7 7 6 5 6 7 3 1 4 5 7 7 5
7 5 4 4 3 3 2 2 1 1 2 2 2 2 3 3 2 2 3 1 2 2 3 3 4 5 6 7 6 7 6 5 4 4 4 4 7 2 3 4 6 7 6
12 8 6 6 6 5 4 3 2 1 0 1 1 1 1 1 1 1 1 1 1 1 2 2 3 4 5 5 5 4 3 2 3 3 2 1 7 4 5 5 5 6 6
14 13 11 9 7 6 4 4 3 2 2 2 2 2 2 3 1 1 1 0 1 2 1 1 2 3 4 4 4 2 1 3 3 3 3 2 9 6 6 6 6 6 5
15 14 13 12 12 10 8 5 6 7 6 6 5 3 3 3 3 2 2 2 2 3 2 0 1 1 3 2 2 1 3 5 4 3 2 3 12 7 8 8 7 7 5
15 16 14 14 14 13 11 12 11 11 12 11 9 6 5 4 4 4 4 4 4 4 5 3 2 0 3 2 1 1 4 6 6 9 7 5 9 8 9 11 10 8 6
17 16 16 16 16 14 14 14 13 13 14 11 10 8 8 6 5 5 4 3 5 6 6 4 3 1 2 3 2 3 3 4 6 15 18 25 10 8 8 12 10 9 7
23 18 16 15 17 16 16 17 16 14 13 13 9 8 9 9 7 6 6 6 6 7 6 4 4 2 2 3 4 4 7 10 11 14 20 22 27 16 8 10 9 9 7
29 26 21 19 17 17 17 21 19 18 17 13 12 11 10 10 9 9 8 7 8 8 6 4 3 3 3 5 5 6 7 11 10 17 21 20 26 31 12 15 16 12 10
35 34 29 29 28 26 24 21 21 20 19 18 16 15 15 13 11 10 9 8 8 8 6 6 4 4 5 7 7 10 6 10 14 13 15 18 20 29 34 17 14 11 8
35 37 35 31 29 27 25 25 24 23 22 22 20 17 16 15 13 11 11 10 9 9 7 6 5 4 5 7 9 8 6 9 17 16 16 15 24 31 35 23 13 10 11
34 36 38 34 30 29 29 28 27 28 28 25 24 21 17 17 16 14 13 12 9 10 8 6 4 4 4 8 9 8 7 9 16 15 16 15 19 26 34 22 10 9 9
34 34 35 35 34 32 29 29 31 30 31 30 27 23 20 19 19 17 16 14 11 11 9 6 4 4 6 8 9 8 7 11 20 16 19 10 26 31 34 26 13 9 9
34 35 36 37 36 34 30 30 31 34 32 34 31 27 22 21 21 20 18 16 13 12 9 6 5 5 8 8 10 11 9 17 20 22 13 16 21 27 33 29 25 18 14
34 34 36 37 38 36 33 30 30 29 32 32 33 32 27 24 23 23 21 18 16 14 10 7 5 7 10 5 11 15 15 22 16 18 15 13 14 20 29 29 32 21 15
35 35 36 37 38 38 37 33 31 28 30 32 32 32 28 26 24 23 23 21 19 16 12 9 7 5 10 9 7 14 17 21 18 20 18 17 16 20 26 29 31 25 19
38 38 37 38 39 38 36 36 32 30 29 29 28 29 28 27 26 23 23 23 21 19 15 11 8 7 10 11 10 10 16 18 21 21 22 17 16 20 23 23 30 27 22
40 41 41 41 39 38 38 37 34 33 29 26 27 27 29 28 27 24 24 23 24 21 17 13 11 9 10 13 11 14 14 19 23 22 24 22 22 20 19 18 25 27 21
40 41 41 42 41 40 39 38 37 34 30 28 26 26 28 27 27 25 24 25 25 20 18 15 13 11 12 12 11 12 13 16 19 22 24 24 23 23 18 15 25 29 24
Wind_Direction
134 132 131 123 110 97 82 67 67 75 85 91 99 103 108 107 105 102 100 99 102 98 93 89 82 94 92 82 79 86 91 75 70 69 72 56 52 55 48 61 65 64 73
132 133 134 126 116 101 82 66 63 70 76 85 93 98 103 105 103 101 99 100 101 97 94 92 86 87 90 87 87 82 84 75 69 75 78 65 57 32 30 40 51 62 77
136 137 136 128 118 108 94 82 64 58 66 78 84 93 101 102 103 102 100 101 99 98 97 99 94 87 82 78 77 76 78 81 80 83 75 47 39 65 59 57 44 80 78
135 139 138 130 119 111 101 84 74 62 58 61 76 87 95 98 103 99 98 101 98 95 97 101 99 93 83 77 73 72 77 82 90 88 72 57 49 64 69 47 79 91 83
135 144 140 134 123 114 107 94 73 62 58 56 63 79 89 96 101 96 99 101 96 97 99 100 94 91 88 83 80 77 79 84 81 87 66 58 47 57 78 81 101 90 82
138 146 146 142 137 127 118 109 85 66 64 61 56 68 83 96 97 95 96 97 94 94 99 93 90 89 89 91 88 86 83 86 91 87 84 53 42 82 82 83 82 79 79
151 155 156 153 148 140 132 115 92 70 74 70 61 62 77 90 84 89 97 96 83 87 92 86 92 96 97 100 103 98 92 96 82 83 94 102 19 85 93 87 87 83 79
226 196 176 170 167 161 141 117 107 97 98 87 78 80 83 89 84 92 102 87 70 83 79 82 95 97 102 103 101 99 96 98 81 79 89 105 107 196 118 107 103 97 91
276 242 227 220 221 223 206 168 134 109 110 112 104 91 87 92 87 97 108 72 57 67 76 81 87 103 108 111 111 114 104 95 69 67 67 101 130 190 162 136 120 111 104
278 263 242 250 263 269 269 256 220 162 219 172 144 118 56 29 58 93 119 95 17 3 33 65 98 104 113 120 118 110 92 34 14 12 13 103 149 171 177 164 155 133 120
277 271 265 263 263 265 268 260 254 283 284 256 266 268 310 323 320 303 206 210 293 320 347 30 106 113 116 115 121 97 27 352 342 339 342 189 160 183 189 188 174 159 141
273 269 269 271 276 278 279 272 275 288 290 282 276 270 288 299 303 302 286 265 280 303 308 274 131 115 121 106 137 328 314 323 321 337 337 170 164 193 191 192 185 170 163
275 273 267 272 274 277 278 279 282 282 284 285 280 271 276 286 296 294 302 295 297 297 309 306 319 124 156 158 223 243 304 309 309 310 299 182 177 189 198 192 176 186 180
281 276 269 268 269 270 274 273 277 278 278 280 275 271 278 278 276 280 284 284 292 300 301 303 304 234 189 193 224 266 289 311 309 297 295 270 252 211 204 218 178 207 198
286 282 274 263 262 270 267 271 273 272 272 276 268 262 266 272 266 275 282 289 290 296 295 294 296 262 236 250 274 269 287 302 301 302 290 280 268 259 213 195 224 179 191
286 282 275 269 256 259 259 268 271 274 273 269 266 265 259 264 270 268 275 282 289 292 297 291 278 269 264 283 270 276 283 297 305 288 294 284 279 260 234 191 180 167 168
286 283 279 276 272 264 261 259 265 270 271 271 273 270 264 259 261 264 265 274 281 292 295 302 297 293 285 292 281 287 281 297 300 295 286 299 277 270 251 228 174 206 194
289 284 284 279 272 265 260 258 260 262 266 269 271 274 264 254 252 256 261 267 278 285 293 294 295 285 278 287 288 283 277 303 293 287 306 309 279 259 250 249 223 184 237
292 287 283 282 276 270 265 263 261 263 263 264 269 270 265 253 248 248 256 266 272 283 284 291 288 271 266 289 285 282 278 299 291 293 305 318 278 261 248 233 225 186 231
296 294 289 284 280 276 272 268 266 263 263 263 263 263 264 259 245 246 254 260 264 276 283 286 282 269 283 289 294 284 282 299 291 293 288 312 265 251 251 253 254 236 238
301 295 290 286 283 280 274 268 266 262 259 260 260 259 257 258 250 244 250 253 256 263 268 263 296 284 295 295 302 296 288 292 292 285 289 284 277 266 257 259 254 257 258
305 301 296 289 284 281 274 270 267 266 262 257 257 258 255 256 251 247 245 245 252 261 260 257 265 306 299 269 297 299 301 291 293 289 277 273 281 286 269 260 250 257 255
306 304 300 295 288 282 277 272 268 270 265 260 255 253 251 250 247 244 244 245 247 253 253 250 247 265 292 286 274 301 302 294 298 289 279 275 280 285 278 264 253 255 253
306 303 301 299 293 285 280 270 261 261 259 257 250 251 248 248 247 243 241 242 243 251 254 252 251 251 284 287 284 273 296 302 296 295 285 282 280 285 286 271 250 247 249
309 304 300 296 294 290 280 273 262 257 259 258 255 250 249 247 242 240 242 242 244 250 254 251 251 256 272 282 275 291 288 292 288 292 288 288 287 288 288 270 247 246 246
313 306 301 297 294 293 283 274 263 253 253 257 251 247 247 248 242 237 239 244 244 246 250 250 253 250 271 278 272 281 280 286 283 284 286 290 290 291 288 276 249 244 249